• In Russia
  • List of Countries
  • For 7 days
  • Water Temperature
  • Satellite Maps
  • Weather Map
  • Weather Widgets
  • user-avatar
    Login

    Hourly Weather Natitingou

    Today, 21 November, Tuesday

    Time Temperature Precipitation Wind Pressure Humidity
    00:00 +28°C° 0 mm 1 mps 717 mmHg 47%
    01:00 +28°C° 0 mm 1 mps 717 mmHg 48%
    02:00 +27°C° 0 mm 1 mps 716 mmHg 49%
    03:00 +27°C° 0 mm 1 mps 716 mmHg 51%
    04:00 +25°C° 0 mm 0 mps 716 mmHg 52%
    05:00 +24°C° 0 mm 0 mps 716 mmHg 54%
    06:00 +24°C° 0 mm 0 mps 717 mmHg 60%
    07:00 +27°C° 0 mm 0 mps 717 mmHg 52%
    08:00 +29°C° 0 mm 0 mps 718 mmHg 45%
    09:00 +32°C° 0 mm 0 mps 718 mmHg 38%
    10:00 +35°C° 0 mm 1 mps 718 mmHg 31%
    11:00 +38°C° 0 mm 2 mps 717 mmHg 25%
    12:00 +39°C° 0 mm 2 mps 717 mmHg 20%
    13:00 +39°C° 0 mm 3 mps 717 mmHg 19%
    14:00 +39°C° 0 mm 3 mps 716 mmHg 17%
    15:00 +39°C° 0 mm 3 mps 716 mmHg 16%
    16:00 +37°C° 0 mm 3 mps 716 mmHg 17%
    17:00 +35°C° 0 mm 2 mps 716 mmHg 19%
    18:00 +32°C° 0 mm 2 mps 715 mmHg 21%
    19:00 +31°C° 0 mm 2 mps 716 mmHg 21%
    20:00 +30°C° 0 mm 2 mps 716 mmHg 21%
    21:00 +30°C° 0 mm 2 mps 717 mmHg 21%
    22:00 +29°C° 0 mm 2 mps 717 mmHg 20%
    23:00 +29°C° 0 mm 2 mps 716 mmHg 20%

    Tomorrow, 22 November, Wednesday

    Time Temperature Precipitation Wind Pressure Humidity
    00:00 +28°C° 0 mm 2 mps 716 mmHg 19%
    01:00 +28°C° 0 mm 2 mps 716 mmHg 19%
    02:00 +27°C° 0 mm 2 mps 716 mmHg 19%
    03:00 +27°C° 0 mm 2 mps 716 mmHg 19%
    04:00 +27°C° 0 mm 2 mps 716 mmHg 19%
    05:00 +26°C° 0 mm 2 mps 716 mmHg 20%
    06:00 +26°C° 0 mm 2 mps 716 mmHg 20%
    07:00 +28°C° 0 mm 2 mps 717 mmHg 18%
    08:00 +31°C° 0 mm 2 mps 717 mmHg 17%
    09:00 +34°C° 0 mm 2 mps 718 mmHg 15%
    10:00 +36°C° 0 mm 3 mps 718 mmHg 14%
    11:00 +38°C° 0 mm 3 mps 717 mmHg 13%
    12:00 +39°C° 0 mm 3 mps 717 mmHg 11%
    13:00 +39°C° 0 mm 2 mps 716 mmHg 11%
    14:00 +40°C° 0 mm 2 mps 715 mmHg 11%
    15:00 +40°C° 0 mm 2 mps 715 mmHg 11%
    16:00 +38°C° 0 mm 2 mps 715 mmHg 13%
    17:00 +34°C° 0 mm 1 mps 714 mmHg 15%
    18:00 +32°C° 0 mm 1 mps 714 mmHg 17%
    19:00 +31°C° 0 mm 1 mps 715 mmHg 18%
    20:00 +31°C° 0 mm 1 mps 715 mmHg 19%
    21:00 +30°C° 0 mm 1 mps 716 mmHg 20%
    22:00 +29°C° 0 mm 1 mps 716 mmHg 21%
    23:00 +29°C° 0 mm 1 mps 716 mmHg 22%

    Day after tomorrow, 23 November, Thursday

    Time Temperature Precipitation Wind Pressure Humidity
    00:00 +28°C° 0 mm 1 mps 716 mmHg 24%
    01:00 +28°C° 0 mm 1 mps 716 mmHg 26%
    02:00 +27°C° 0 mm 1 mps 715 mmHg 28%
    03:00 +27°C° 0 mm 1 mps 715 mmHg 30%
    04:00 +27°C° 0 mm 1 mps 715 mmHg 34%
    05:00 +26°C° 0 mm 1 mps 716 mmHg 39%
    06:00 +26°C° 0 mm 1 mps 716 mmHg 44%
    07:00 +27°C° 0 mm 1 mps 717 mmHg 46%
    08:00 +29°C° 0 mm 2 mps 717 mmHg 48%
    09:00 +31°C° 0 mm 2 mps 718 mmHg 50%
    10:00 +34°C° 0 mm 2 mps 718 mmHg 44%
    11:00 +36°C° 0 mm 2 mps 717 mmHg 38%
    12:00 +37°C° 0 mm 1 mps 717 mmHg 31%
    13:00 +37°C° 0 mm 1 mps 716 mmHg 29%
    14:00 +37°C° 0 mm 1 mps 716 mmHg 27%
    15:00 +35°C° 0 mm 0 mps 715 mmHg 25%
    16:00 +34°C° 0 mm 0 mps 715 mmHg 28%
    17:00 +32°C° 0 mm 0 mps 715 mmHg 31%
    18:00 +32°C° 0 mm 1 mps 716 mmHg 33%
    19:00 +32°C° 0 mm 1 mps 716 mmHg 34%
    20:00 +31°C° 0 mm 1 mps 717 mmHg 35%
    21:00 +30°C° 0 mm 1 mps 717 mmHg 37%
    22:00 +30°C° 0 mm 1 mps 717 mmHg 37%
    23:00 +30°C° 0 mm 1 mps 717 mmHg 38%

    24 November, Friday

    Time Temperature Precipitation Wind Pressure Humidity
    00:00 +29°C° 0 mm 1 mps 717 mmHg 39%
    01:00 +29°C° 0 mm 1 mps 716 mmHg 40%
    02:00 +28°C° 0 mm 1 mps 716 mmHg 40%
    03:00 +28°C° 0 mm 1 mps 716 mmHg 41%
    04:00 +27°C° 0 mm 1 mps 716 mmHg 44%
    05:00 +26°C° 0 mm 1 mps 716 mmHg 47%
    06:00 +23°C° 0 mm 0 mps 717 mmHg 50%
    07:00 +28°C° 0 mm 1 mps 717 mmHg 48%
    08:00 +30°C° 0 mm 2 mps 718 mmHg 46%
    09:00 +32°C° 0 mm 2 mps 719 mmHg 45%
    10:00 +36°C° 0 mm 2 mps 718 mmHg 36%
    11:00 +39°C° 0 mm 1 mps 718 mmHg 28%
    12:00 +39°C° 0 mm 0 mps 718 mmHg 19%
    13:00 +41°C° 0 mm 1 mps 717 mmHg 18%
    14:00 +40°C° 0 mm 1 mps 716 mmHg 16%
    15:00 +40°C° 0 mm 1 mps 715 mmHg 15%
    16:00 +37°C° 0 mm 1 mps 715 mmHg 16%
    17:00 +35°C° 0 mm 1 mps 715 mmHg 17%
    18:00 +33°C° 0 mm 1 mps 716 mmHg 19%
    19:00 +32°C° 0 mm 1 mps 716 mmHg 19%
    20:00 +31°C° 0 mm 1 mps 716 mmHg 19%
    21:00 +30°C° 0 mm 1 mps 717 mmHg 19%
    22:00 +29°C° 0 mm 1 mps 717 mmHg 19%
    23:00 +28°C° 0 mm 1 mps 717 mmHg 19%

    25 November, Saturday

    Time Temperature Precipitation Wind Pressure Humidity
    00:00 +28°C° 0 mm 1 mps 716 mmHg 19%
    01:00 +27°C° 0 mm 1 mps 716 mmHg 20%
    02:00 +26°C° 0 mm 1 mps 716 mmHg 20%
    03:00 +26°C° 0 mm 1 mps 716 mmHg 20%
    04:00 +25°C° 0 mm 1 mps 716 mmHg 23%
    05:00 +25°C° 0 mm 1 mps 717 mmHg 25%
    06:00 +24°C° 0 mm 1 mps 717 mmHg 27%
    07:00 +27°C° 0 mm 1 mps 718 mmHg 29%
    08:00 +30°C° 0 mm 1 mps 718 mmHg 31%
    09:00 +33°C° 0 mm 1 mps 719 mmHg 32%
    10:00 +36°C° 0 mm 2 mps 719 mmHg 27%
    11:00 +37°C° 0 mm 2 mps 718 mmHg 22%
    12:00 +39°C° 0 mm 2 mps 718 mmHg 16%
    13:00 +39°C° 0 mm 2 mps 717 mmHg 15%
    14:00 +40°C° 0 mm 2 mps 716 mmHg 13%
    15:00 +40°C° 0 mm 2 mps 716 mmHg 12%
    16:00 +38°C° 0 mm 2 mps 716 mmHg 13%
    17:00 +35°C° 0 mm 2 mps 716 mmHg 14%
    18:00 +32°C° 0 mm 2 mps 716 mmHg 15%
    19:00 +31°C° 0 mm 2 mps 717 mmHg 15%
    20:00 +30°C° 0 mm 2 mps 717 mmHg 15%
    21:00 +29°C° 0 mm 2 mps 718 mmHg 15%
    22:00 +29°C° 0 mm 2 mps 718 mmHg 15%
    23:00 +28°C° 0 mm 2 mps 718 mmHg 15%

    26 November, Sunday

    Time Temperature Precipitation Wind Pressure Humidity
    00:00 +28°C° 0 mm 2 mps 717 mmHg 16%
    01:00 +27°C° 0 mm 2 mps 717 mmHg 17%
    02:00 +26°C° 0 mm 2 mps 717 mmHg 18%
    03:00 +26°C° 0 mm 2 mps 717 mmHg 19%
    04:00 +25°C° 0 mm 2 mps 717 mmHg 21%
    05:00 +25°C° 0 mm 2 mps 718 mmHg 24%
    06:00 +24°C° 0 mm 2 mps 718 mmHg 26%
    07:00 +27°C° 0 mm 2 mps 719 mmHg 25%
    08:00 +30°C° 0 mm 2 mps 719 mmHg 25%
    09:00 +33°C° 0 mm 3 mps 720 mmHg 24%
    10:00 +35°C° 0 mm 3 mps 720 mmHg 20%
    11:00 +37°C° 0 mm 3 mps 719 mmHg 15%
    12:00 +40°C° 0 mm 4 mps 719 mmHg 11%
    13:00 +40°C° 0 mm 4 mps 718 mmHg 10%
    14:00 +40°C° 0 mm 4 mps 717 mmHg 9%
    15:00 +40°C° 0 mm 4 mps 717 mmHg 8%
    16:00 +37°C° 0 mm 3 mps 717 mmHg 9%
    17:00 +35°C° 0 mm 2 mps 717 mmHg 10%
    18:00 +31°C° 0 mm 2 mps 717 mmHg 12%
    19:00 +30°C° 0 mm 2 mps 717 mmHg 12%
    20:00 +29°C° 0 mm 2 mps 718 mmHg 13%
    21:00 +28°C° 0 mm 2 mps 718 mmHg 14%
    22:00 +28°C° 0 mm 2 mps 718 mmHg 14%
    23:00 +27°C° 0 mm 2 mps 718 mmHg 15%
    Show more